Preview of NWS' New Version of Forecast
This preview is not operational and should not be used for support decisions.

Regional Weather Roundup (RWR)

Issued by National Weather Service (NWS)

                            
000
ASUS46 KPQR 231810
RWROR 

OREGON REGIONAL WEATHER ROUNDUP
NATIONAL WEATHER SERVICE PORTLAND OR
1100 AM PDT SUN JUN 23 2019

NOTE: "FAIR" INDICATES FEW OR NO CLOUDS BELOW 12,000 FEET WITH
NO SIGNIFICANT WEATHER AND/OR OBSTRUCTIONS TO VISIBILITY.

ORZ001>013-231900-
NORTHWEST OREGON

  
CITY           SKY/WX    TMP DP  RH WIND       PRES   REMARKS
ASTORIA        CLOUDY    58  52  80 SW10      30.23F                  
6HR MIN TEMP:  53; 6HR MAX TEMP:  59;                                

TILLAMOOK      CLOUDY    57  50  77 W3        30.27S                  
NEWPORT        CLOUDY    55  48  76 CALM      30.29S                  
PORTLAND       PTSUNNY   61  46  57 NW6       30.24S                  
6HR MIN TEMP:  57; 6HR MAX TEMP:  61;                                

VANCOUVER WA   CLOUDY    60  47  61 W6        30.24S                  
6HR MIN TEMP:  56; 6HR MAX TEMP:  60;                                

SCAPPOOSE      CLOUDY    61  47  59 NW5       30.22F                  
6HR MIN TEMP:  56; 6HR MAX TEMP:  61;                                

HILLSBORO      CLOUDY    62  46  55 NW5       30.23S                  
6HR MIN TEMP:  53; 6HR MAX TEMP:  62;                                

AURORA         CLOUDY    63  47  55 NE3       30.24F                  
6HR MIN TEMP:  56; 6HR MAX TEMP:  63;                                

MCMINNVILLE    CLOUDY    62  49  62 SW6       30.22F                  
6HR MIN TEMP:  47; 6HR MAX TEMP:  63;                                

SALEM          CLOUDY    62  47  57 W5        30.22F                  
6HR MIN TEMP:  55; 6HR MAX TEMP:  64;                                

CORVALLIS      CLOUDY    62  48  60 CALM      30.23F                  
EUGENE         PTSUNNY   64  48  56 CALM      30.23S                  
6HR MIN TEMP:  55; 6HR MAX TEMP:  65;                                

$$

ORZ021-028-231900-
SOUTHWEST OREGON

  
CITY           SKY/WX    TMP DP  RH WIND       PRES   REMARKS
NORTH BEND     CLOUDY    61  51  70 N17       30.25F                  
6HR MIN TEMP:  55; 6HR MAX TEMP:  61;                                

BROOKINGS      SUNNY     74  51  44 W12       30.09F                  
ROSEBURG       CLOUDY    63  50  62 CALM      30.22F                  
6HR MIN TEMP:  53; 6HR MAX TEMP:  63;                                

SEXTON SUMMIT  SUNNY     62  48  60 VRB3      30.22S                  
6HR MIN TEMP:  47; 6HR MAX TEMP:  62;                                

GRANTS PASS    FAIR      72  48  43 VRB5      30.19F                  
MEDFORD        SUNNY     72  43  35 N3        30.15F                  
6HR MIN TEMP:  51; 6HR MAX TEMP:  72;                                

$$

ORZ014>016-041-231900-
COLUMBIA GORGE

  
CITY           SKY/WX    TMP DP  RH WIND       PRES   REMARKS
TROUTDALE      CLOUDY    61  47  59 VRB6      30.23F                  
6HR MIN TEMP:  56; 6HR MAX TEMP:  61; 6HR PCP:  0.01;                

HOOD RIVER     MOSUNNY   63  45  51 NW14G21   30.17S                  
THE DALLES     MOSUNNY   68  45  43 W16G28    30.13S                  
6HR MIN TEMP:  60; 6HR MAX TEMP:  68;                                

$$

ORZ029>031-041-044-049-050-061>064-502-503-505>511-231900-
EASTERN OREGON

  
CITY           SKY/WX    TMP DP  RH WIND       PRES   REMARKS
MADRAS         SUNNY     64  41  42 NW6       30.16F                  
REDMOND        SUNNY     69  35  28 NW12      30.14F                  
6HR MIN TEMP:  44; 6HR MAX TEMP:  69;                                

BEND           SUNNY     66  32  28 NW8G16    30.14F                  
PRINEVILLE     SUNNY     64  34  32 W8G17     30.14F                  
KLAMATH FALLS  SUNNY     67  38  34 VRB7      30.17F                  
6HR MIN TEMP:  40; 6HR MAX TEMP:  68;                                

LAKEVIEW       SUNNY     65  38  36 S7        30.18F                  
HERMISTON      PTSUNNY   73  46  38 W20G26    30.04F                  
6HR MIN TEMP:  60; 6HR MAX TEMP:  75;                                

PENDLETON      PTSUNNY   70  43  37 W14       30.06F                  
6HR MIN TEMP:  57; 6HR MAX TEMP:  71;                                

JOHN DAY       SUNNY     62  38  41 W12       30.12S                  
MEACHAM        CLOUDY    53  42  66 CALM      30.12S                  
6HR MIN TEMP:  48; 6HR MAX TEMP:  54;                                

LA GRANDE      CLOUDY    60  42  51 W12       30.11S                  
6HR MIN TEMP:  46; 6HR MAX TEMP:  60;                                

BAKER CITY     MOSUNNY   63  42  46 N12G26    30.08F                  
6HR MIN TEMP:  44; 6HR MAX TEMP:  64;                                

BURNS          SUNNY     67  28  23 NW15      30.12F                  
6HR MIN TEMP:  41; 6HR MAX TEMP:  67;                                

ROME             N/A     72  26  18 VRB7      30.07F                  
6HR MIN TEMP:  46; 6HR MAX TEMP:  73;                                

ONTARIO        SUNNY     75  34  22 NW6       30.03F                  
6HR MIN TEMP:  55; 6HR MAX TEMP:  75;                                

$$